Location: Goettingen
(51.5300°N, 9.9433°E)
Time: 09:37:49
(UTC+02:00)

ISS - Pass Details

Date: 17 May 2025
Orbit: 416 x 419 km, 51.6° (Epoch: 18 May)

Event Time Altitude Azimuth Distance (km) Brightness Sun altitude
Rises 23:50:21 0° 283° (WNW) 2,362 0.6 -16.5°
Reaches altitude 10° 23:52:29 10° 278° (W) 1,496 -0.6 -16.6°
Maximum altitude 23:55:45 50° 203° (SSW) 541 -3.6 -16.7°
Enters shadow 23:56:06 47° 178° (S) 562 -3.6 -16.8°
